Location: Kellogg
(38.0159°N, 90.0546°W)
Time: 16:02:16
(UTC+00:00)

Courier 1B - Pass Details

Date: 17 September 2024
Orbit: 962 x 1208 km, 28.3° (Epoch: 11 October)

Event Time Altitude Azimuth Distance (km) Brightness Sun altitude
Rises 01:04:00 0° 262° (W) 4,059 12.2 -12.2°
Reaches altitude 10° 01:08:01 10° 243° (WSW) 3,120 10.9 -13.0°
Maximum altitude 01:12:34 17° 207° (SSW) 2,659 9.9 -13.9°
Drops below altitude 10° 01:17:09 10° 170° (S) 3,134 9.9 -14.7°
Enters shadow 01:20:09 - 155° (SSE) 3,808 10.2 -15.3°
